This is the latest recevied weather packets stored in our database for station/object F4ELU-13. If no packets are shown the sender has not sent any weather packets the latest 10 day(s).
| Time | Temp. | Humidity | Pressure | Rain* | Wind** | Luminosity | Snow |
|---|---|---|---|---|---|---|---|
| 1777925343 | 13.89° C | 87% | 1010.9 hPa | 0 mm | - | - | - |
| 1777924803 | 14.44° C | 85% | 1010.8 hPa | 0 mm | - | - | - |
| 1777924443 | 14.44° C | 84% | 1010.9 hPa | 0 mm | - | - | - |
| 1777923903 | 14.44° C | 84% | 1010.9 hPa | 0 mm | - | - | - |
| 1777923363 | 15° C | 83% | 1010.8 hPa | 0 mm | - | - | - |
| 1777922823 | 15° C | 83% | 1010.8 hPa | 0 mm | - | - | - |
| 1777922283 | 15° C | 82% | 1010.7 hPa | 0 mm | - | - | - |
| 1777921743 | 15° C | 83% | 1010.8 hPa | 0 mm | - | - | - |
| 1777921203 | 15° C | 84% | 1010.8 hPa | 0 mm | - | - | - |
| 1777920843 | 14.44° C | 86% | 1010.7 hPa | 0 mm | - | - | - |
| 1777920303 | 15° C | 85% | 1010.8 hPa | 0 mm | - | - | - |
| 1777919763 | 14.44° C | 84% | 1010.8 hPa | 0 mm | - | - | - |
| 1777919223 | 15° C | 87% | 1010.7 hPa | 0 mm | - | - | - |
| 1777918683 | 15.56° C | 86% | 1010.8 hPa | 0 mm | - | - | - |
| 1777918143 | 15.56° C | 87% | 1010.7 hPa | 0 mm | - | - | - |
| 1777917603 | 15.56° C | 86% | 1010.7 hPa | 0 mm | - | - | - |
| 1777917243 | 15.56° C | 85% | 1010.7 hPa | 0 mm | - | - | - |
| 1777916703 | 15.56° C | 86% | 1010.7 hPa | 0 mm | - | - | - |
| 1777916163 | 16.11° C | 84% | 1010.7 hPa | 0 mm | - | - | - |
| 1777915623 | 16.11° C | 83% | 1010.8 hPa | 0 mm | - | - | - |
| 1777915083 | 16.67° C | 82% | 1010.7 hPa | 0 mm | - | - | - |
| 1777914543 | 16.67° C | 80% | 1010.7 hPa | 0 mm | - | - | - |
| 1777914003 | 18.33° C | 78% | 1010.7 hPa | 0 mm | - | - | - |
| 1777913643 | 18.33° C | 78% | 1010.7 hPa | 0 mm | - | - | - |
| 1777913103 | 17.78° C | 78% | 1010.8 hPa | 0 mm | - | - | - |
* Rain latest hour (hover to see other rain measurements)
** Current wind speed in m/s (hover to see current wind gust speed)